DELTA 1 DEB, 7127

Orbit data source: Space-Track

DELTA 1 DEB, 7127 is space debris in SSO originally from a launch on Tue, 06 Nov 1973 UTC launched from the Air Force Western Test Range (AFWTR). Debris objects in space refer to the collection of defunct objects orbiting the Earth. Examples of debris include non-operational satellites, rocket bodies, and fragments generated from explosions, collisions, or faulty payload assembly.

Loading next visibility...
Identifier
7127, 1973-086CR
Orbit
SSO
Country
Flag of USUS
Related business
Manufacturer
Unknown
Mission
Spacecraft
Bus & Motor
Unknown
Mass
Unknown
Launch date (UTC)
1973-11-06 (52 years ago)
Launch vehicle
Unknown
Launch site
Air Force Western Test Range (AFWTR)
Object type
Payload
Rocket body
Debris
Shape & HBR
Unknown shape, 0.2 m
Radar Cross Section
Small (<0.1 m²)

Expand to show TLE details & history
Last TLE update: 2 days ago

TLE from 2 days ago
0 DELTA 1 DEB
1 07127U 73086CR  26032.99838090  .00000323  00000-0  40041-2 0  9999
2 07127 101.8867  62.4524 0267384 180.7162 256.8820 12.00778516288891
Epoch: 2026-02-01T23:57Z
TLE epoch observation values (Epoch: 2026-02-01T23:57:40.109Z)
Latitude
70.7355°
Longitude
-105.99167°
Altitude
1,743.735 km
Speed
6.989 km/s
True Right ascension
01h 42m 30s
True Declination
70° 38' 28"
Sunlit
Object was in daylight at epoch
Visualization orbit readout
Latitude
Unknown
Longitude
Unknown
Altitude
Unknown
Speed
Unknown
Apparent Right ascension
Unknown
Apparent Declination
Unknown
Sunlit
N/A
Visualization observer readout
Local Sidereal Time
01:45:34
Azimuth
Unknown
Elevation
Unknown
Doppler factor
Unknown
Orbital elements
Apogee altitude
1,890.322 km
Perigee altitude
1,459.666 km
Semi-major axis
8,053.131 km
Eccentricity
0.02674
Inclination
101.8867°
RAAN
62.4524°
Arg. of periapsis
180.7162°
True anomaly
253.92175°
Mean anomaly
256.882°
Eccentric anomaly
255.39948°
Mean motion
3.00328 °/min
Orbital period
119.87 mins
BSTAR
0.0040041
Loading maneuver chart data...
Computing Atmospheric mass density...
Loading historical data...
Loading historical data...
Loading historical data...
Loading historical data...
Loading historical data...
Loading historical data...
Loading historical data...

Documentation

Showing up to 5 results
|